Temperature
21 20 19 19 19 19 21 22 23 22 22 22 22 21 20 20 20 20 19 20 20 19 19 19 19 19 19 19 19 19 19 19 19 19 19 18 18 18 18 18 18 18 18 18 18 18 18 18 18
20 20 19 19 19 20 21 22 22 22 22 22 22 21 20 19 19 20 20 20 20 19 19 19 19 19 19 19 19 19 19 19 19 19 19 19 18 18 18 18 18 18 18 18 18 18 18 18 18
20 20 20 19 20 20 22 22 22 22 22 22 21 21 20 19 19 20 20 20 20 19 19 19 19 19 19 19 19 19 19 19 19 19 19 19 18 18 18 18 18 18 18 18 18 18 18 18 18
21 20 20 20 21 22 22 22 22 23 23 22 21 20 20 20 20 20 20 20 20 19 19 19 19 19 19 19 19 19 19 19 19 19 19 19 19 18 18 18 18 18 18 18 18 18 18 18 18
21 21 20 21 22 23 23 23 23 22 22 21 21 20 19 20 20 20 20 20 20 19 19 19 19 19 19 19 19 19 19 19 19 19 19 19 19 19 18 18 18 18 18 18 18 18 18 18 18
21 20 20 21 22 23 23 23 23 22 22 21 21 20 19 20 20 20 20 20 19 19 19 19 19 19 19 19 19 19 19 19 19 19 19 19 19 19 18 18 18 18 18 18 18 18 18 18 18
21 20 21 22 22 23 23 23 23 22 22 21 21 19 19 20 20 20 20 19 19 19 19 19 19 19 19 19 19 19 19 19 19 19 19 19 18 18 18 18 18 18 18 18 18 18 18 18 18
22 20 22 22 22 23 24 23 23 22 22 21 21 20 19 20 20 20 20 19 19 19 19 19 19 19 19 19 19 19 19 19 19 19 19 19 19 18 18 18 18 18 18 18 18 18 18 18 18
23 20 21 22 23 23 24 23 23 22 22 21 21 21 21 20 20 20 20 19 19 19 19 19 19 19 19 19 19 19 19 19 19 19 19 19 19 19 18 18 18 18 18 18 18 18 18 18 18
22 21 23 23 23 23 24 23 23 22 21 21 21 21 21 20 20 20 20 20 20 19 19 19 19 19 19 19 19 19 19 19 19 19 19 19 19 19 19 18 18 18 18 18 18 18 18 18 18
22 22 23 24 24 24 24 23 23 22 21 21 21 21 20 20 20 20 20 20 20 20 19 19 19 19 19 19 19 19 19 19 19 19 19 19 19 19 19 19 18 18 18 18 18 18 18 18 18
22 23 24 24 25 24 24 23 22 22 22 23 22 22 21 21 20 20 20 20 20 20 20 19 19 19 19 19 19 19 19 19 19 19 19 19 19 19 19 19 18 18 18 18 18 18 18 18 18
23 24 25 24 24 24 24 23 23 22 23 22 22 21 21 21 21 21 21 20 20 20 20 20 19 19 19 19 19 19 19 19 19 19 19 18 19 19 19 19 18 18 18 18 18 18 18 18 18
24 24 24 24 24 24 23 23 23 22 22 22 22 21 21 21 21 21 21 20 20 20 20 20 20 19 19 19 19 19 19 19 19 19 19 18 18 18 18 19 18 18 18 18 18 18 18 18 18
25 24 24 24 24 24 24 23 22 22 22 22 21 21 21 21 21 21 21 21 21 20 20 20 20 20 19 19 19 19 19 19 19 19 19 18 18 19 18 19 18 18 18 18 18 18 18 18 18
24 23 23 24 24 24 24 23 23 23 22 21 21 21 21 21 21 21 21 21 21 20 20 20 20 20 19 19 19 19 19 19 19 19 19 19 18 18 18 18 18 18 18 18 18 18 18 18 18
23 23 23 24 24 24 24 23 23 22 22 21 21 21 21 21 21 21 21 21 21 21 20 20 20 20 19 19 19 19 19 19 19 19 19 18 18 18 18 18 18 18 18 18 18 18 18 18 18
24 24 24 24 24 24 23 23 22 22 22 22 21 21 21 22 22 22 21 21 21 21 20 20 20 20 19 19 19 19 19 19 19 19 18 18 18 18 18 18 18 18 18 18 18 18 18 18 18
24 24 24 24 24 23 23 23 22 22 22 21 21 21 22 22 22 22 21 21 21 21 20 20 20 20 19 19 19 19 19 19 19 19 19 18 18 18 18 18 18 18 18 18 18 18 18 18 18
24 24 24 24 24 24 23 23 22 22 22 22 22 22 22 22 22 22 22 21 21 21 21 20 20 20 19 19 19 19 19 19 19 18 18 18 18 18 18 18 18 18 18 18 18 18 18 18 18
24 24 24 24 24 23 23 23 23 22 23 22 22 23 23 23 23 23 22 22 21 21 21 20 20 20 19 19 19 19 19 19 19 18 18 18 18 18 18 18 18 18 18 18 18 18 18 18 18
24 25 24 24 23 21 23 22 22 22 22 22 22 22 23 23 23 23 23 22 22 22 21 21 20 20 19 19 19 19 19 19 19 19 18 18 18 18 18 18 18 18 18 18 18 18 18 18 18
24 24 24 23 22 21 21 21 21 21 22 22 22 23 23 24 24 24 23 23 23 22 21 21 20 20 20 19 19 19 19 19 19 19 18 18 18 18 18 18 18 18 18 18 18 18 18 18 18
24 23 22 20 20 21 21 21 21 20 22 22 22 23 23 23 24 24 23 23 23 22 22 21 21 20 20 19 19 19 19 19 19 19 18 18 18 18 18 18 18 18 18 18 18 18 18 18 18
23 22 21 22 20 21 21 21 21 22 22 22 22 23 23 23 23 23 23 23 23 22 22 21 21 21 20 20 19 19 19 19 19 19 19 19 18 18 18 18 18 18 18 18 18 18 17 17 17
23 22 21 22 21 21 20 21 22 22 22 23 23 23 23 23 23 24 24 23 23 23 22 22 21 21 20 20 20 19 19 19 19 19 19 19 18 18 18 18 18 18 18 18 18 18 17 17 17
23 21 21 19 20 20 21 21 22 22 22 22 22 23 23 23 23 23 24 23 23 23 22 22 21 21 21 20 20 20 19 19 19 19 19 19 18 18 18 18 18 18 18 18 18 18 17 17 17
22 20 19 19 20 21 22 21 21 22 22 21 21 22 22 23 23 23 23 23 23 23 22 22 21 21 20 20 20 20 19 19 19 19 19 19 19 18 18 18 18 18 18 18 17 17 17 17 17
22 21 18 17 19 20 21 21 22 21 21 20 21 22 22 23 23 24 24 23 23 22 22 22 21 21 20 20 20 20 19 19 19 19 19 19 18 18 18 18 18 18 18 18 17 17 17 17 17
23 21 19 21 20 18 19 20 22 20 20 20 21 22 22 23 24 24 24 23 23 22 22 21 21 21 20 20 20 20 19 19 19 19 19 19 19 18 18 18 18 18 18 18 17 17 17 17 17
Wind_Speed
9 8 3 1 2 3 2 3 0 2 3 3 4 6 6 4 2 2 1 3 5 5 5 7 9 10 10 11 11 11 12 12 12 12 12 12 12 12 12 11 11 11 11 10 10 9 8 7 7
7 5 2 1 3 3 3 2 2 2 3 4 5 5 6 5 3 4 2 4 5 5 5 7 9 10 10 10 11 11 12 12 11 11 12 12 12 11 11 10 10 11 10 9 9 8 7 7 6
6 4 1 2 2 1 1 1 3 3 3 2 4 5 4 3 2 2 3 6 6 4 4 7 9 9 10 10 10 11 11 11 11 11 11 11 11 10 10 9 10 9 9 8 8 8 7 6 6
3 1 1 3 2 1 2 1 3 4 3 5 4 5 4 3 3 4 7 8 6 4 4 6 8 8 9 9 10 10 10 10 10 10 10 10 10 10 9 9 9 9 8 7 7 7 6 5 4
1 2 4 4 3 2 1 2 3 3 3 4 5 5 4 4 6 8 8 7 6 3 3 3 6 8 8 8 8 9 9 9 9 9 9 9 9 9 8 9 8 8 7 6 6 5 4 3 2
2 3 4 2 3 3 2 2 4 5 4 4 4 4 3 3 6 7 7 6 4 3 3 3 5 6 8 8 8 8 8 8 7 8 8 9 9 8 8 8 7 6 5 5 4 4 3 2 2
2 3 2 0 1 2 1 3 4 4 4 3 3 4 2 2 4 6 6 5 4 4 3 2 3 4 6 7 7 7 7 7 7 7 7 7 7 7 6 6 5 5 4 4 3 3 2 2 2
3 3 2 1 1 1 2 3 3 4 4 3 3 5 4 4 6 8 7 5 4 3 2 2 3 4 3 4 5 6 6 6 6 6 6 5 5 4 4 3 3 3 3 2 2 2 2 2 3
2 4 1 2 3 1 2 3 2 4 5 3 3 4 5 10 10 8 5 4 2 2 1 2 2 3 3 2 3 4 5 5 5 4 4 3 3 3 2 2 1 1 1 1 1 1 2 2 3
3 2 3 3 3 3 3 3 4 4 4 3 5 6 9 11 10 8 6 5 4 3 2 1 1 1 2 2 3 3 3 4 3 3 3 3 3 2 1 1 1 2 2 2 2 2 3 3 3
3 3 2 0 3 4 4 4 3 7 3 4 7 10 10 9 8 8 6 5 5 4 3 2 2 2 2 1 2 2 3 3 2 2 2 2 2 2 1 1 2 3 3 3 3 3 3 2 1
2 3 2 1 3 4 4 4 4 4 3 5 9 11 10 9 8 8 7 6 5 4 4 3 3 2 2 1 1 2 2 1 1 1 1 2 1 1 1 1 1 1 2 2 1 1 2 2 1
2 1 1 4 5 4 5 4 3 1 4 8 10 10 9 9 7 5 5 5 5 5 5 4 4 3 2 1 1 2 1 1 2 1 2 2 1 0 0 1 1 1 1 1 1 1 1 1 1
1 2 3 4 4 3 5 3 3 2 7 9 9 9 8 8 7 5 5 5 6 5 5 4 4 4 3 3 2 2 2 2 2 2 3 3 2 1 0 0 1 1 0 0 0 0 0 0 1
2 4 5 2 2 2 5 2 1 4 8 9 8 8 7 7 7 7 7 6 6 6 5 5 5 4 4 4 3 2 2 2 2 2 2 3 3 3 2 1 1 0 1 1 1 1 1 1 1
3 4 2 2 1 2 4 2 3 7 9 8 8 7 7 6 7 7 7 6 6 5 5 5 5 5 5 4 3 2 2 2 2 2 2 2 3 3 2 1 1 0 1 1 1 1 1 1 1
4 2 1 2 2 3 3 4 3 7 8 8 7 7 7 6 6 7 7 7 6 6 6 5 5 5 4 3 2 2 1 1 1 1 1 2 3 3 2 1 0 1 1 0 0 1 1 0 1
2 2 2 3 3 3 3 4 4 8 9 8 7 7 7 8 9 7 6 6 6 6 6 6 4 4 4 3 2 1 1 0 0 1 1 2 2 3 2 1 0 1 1 1 1 1 1 0 0
3 3 3 3 2 3 4 4 4 7 7 7 7 8 8 9 7 5 6 6 5 5 5 5 5 4 4 2 2 2 1 1 0 1 1 1 2 2 2 1 1 1 1 1 1 1 1 1 1
3 2 2 1 1 2 1 3 2 6 8 8 9 9 9 7 6 6 6 6 7 7 6 6 5 5 4 3 3 2 2 1 1 0 0 1 1 2 2 2 1 1 1 1 1 1 1 0 1
2 4 3 2 2 4 3 4 2 2 4 5 6 7 8 10 9 8 8 7 7 7 7 7 6 5 5 4 3 3 2 2 1 0 1 1 1 2 2 2 1 1 1 1 1 1 2 1 0
3 3 4 4 4 2 2 2 5 3 2 5 7 7 9 9 9 9 9 9 9 8 7 6 6 5 5 5 4 4 3 3 2 2 1 1 1 1 2 2 2 2 1 1 1 1 2 2 1
3 3 4 4 5 3 3 1 7 2 3 6 7 8 9 9 10 10 10 10 9 8 7 6 6 5 5 5 6 5 3 3 1 1 1 1 1 1 1 2 2 2 2 2 1 1 1 1 2
5 7 7 6 5 2 2 2 5 3 5 4 5 7 7 7 8 8 7 7 6 6 7 6 6 6 5 5 5 6 5 4 3 2 2 1 1 1 1 1 2 2 2 2 2 1 1 1 1
5 6 4 4 4 3 2 1 7 6 5 4 5 5 5 6 7 7 8 8 8 8 8 7 7 6 5 5 5 5 6 5 5 4 4 3 2 2 2 2 2 2 2 2 1 2 1 1 1
4 7 7 5 4 3 1 3 6 4 3 3 3 2 2 4 6 7 8 8 8 8 8 7 7 6 6 6 5 4 5 4 4 4 4 4 3 3 2 2 2 2 2 2 2 2 2 1 1
6 3 6 6 3 1 4 5 7 3 4 2 1 1 2 4 5 6 7 7 7 8 8 8 7 6 5 5 5 4 4 4 4 4 4 4 3 3 3 3 3 2 2 2 2 2 2 2 2
6 8 6 6 5 1 4 3 4 5 4 3 2 2 3 3 4 4 5 6 6 6 5 5 6 6 5 5 5 4 4 4 4 4 5 4 4 3 2 3 3 2 2 2 2 2 2 2 2
4 5 6 5 5 6 2 6 4 5 5 4 4 4 3 4 5 6 5 5 5 5 5 5 5 5 5 5 4 4 4 4 4 4 4 4 3 3 3 3 3 3 3 3 2 2 2 2 2
4 6 7 5 3 4 4 6 4 2 3 2 3 2 2 2 2 3 4 4 4 5 5 5 5 5 5 5 4 4 3 3 3 4 4 3 3 3 4 3 3 3 3 3 3 3 2 3 3
Wind_Direction
157 149 152 163 53 41 359 321 350 42 44 37 65 80 89 80 98 118 16 108 108 112 116 123 121 121 122 123 123 124 126 128 127 127 126 126 127 128 126 125 124 125 124 123 125 124 124 125 129
151 158 178 84 67 36 330 340 67 52 122 125 75 71 71 61 60 101 107 110 110 111 109 120 124 124 123 123 123 125 126 127 127 128 129 129 129 130 129 129 128 127 126 127 127 123 124 126 132
165 189 129 66 69 145 300 6 94 87 94 76 68 56 68 80 100 134 143 122 106 101 109 127 129 129 126 123 124 124 125 127 127 127 128 129 129 131 131 130 129 127 125 126 125 124 123 127 132
167 154 61 61 36 276 196 179 125 111 53 50 81 65 55 46 129 136 123 120 113 104 114 133 133 133 128 125 125 126 126 128 127 126 127 127 127 128 130 128 127 128 128 127 125 125 126 132 137
126 85 48 30 348 340 74 119 102 86 57 53 74 80 45 21 92 113 120 123 126 120 114 126 128 132 131 130 129 129 128 128 127 129 129 130 129 128 128 125 125 126 125 123 123 125 129 132 136
58 63 60 11 344 7 55 70 97 85 82 74 75 85 49 61 102 117 118 121 121 116 110 117 128 131 137 138 137 132 132 130 131 132 131 130 129 127 126 125 124 125 124 122 125 128 128 129 115
101 80 96 111 353 7 108 93 100 104 88 90 102 92 75 91 114 115 109 105 99 94 89 77 85 111 130 133 137 138 137 138 137 136 134 132 130 128 127 127 127 125 122 119 117 112 103 92 79
133 95 58 49 98 333 108 91 104 100 92 101 101 124 162 166 124 108 96 89 85 79 72 68 66 73 83 110 128 139 142 138 135 135 135 131 129 126 127 130 141 138 131 128 119 95 79 60 54
111 68 17 220 179 189 120 103 99 79 95 85 88 131 145 129 121 112 103 92 101 118 82 70 75 78 84 94 117 125 138 135 126 129 129 113 96 103 121 134 144 133 119 116 111 92 77 63 52
94 115 241 218 174 147 122 114 130 103 92 85 78 88 114 126 134 141 150 160 168 179 169 136 127 113 100 108 87 82 103 106 100 93 99 91 81 71 70 77 27 23 38 47 47 47 52 64 61
152 200 248 58 132 126 123 114 116 126 143 174 155 141 134 138 145 157 173 178 184 184 179 173 170 142 118 99 95 80 89 94 94 91 99 98 73 47 41 31 16 22 29 42 39 41 46 62 76
180 258 207 104 107 107 128 130 118 146 189 161 151 145 144 150 162 171 177 179 172 177 191 183 169 154 158 140 116 114 112 119 149 183 155 129 88 47 37 27 356 30 31 34 34 44 28 35 55
189 291 83 111 99 100 102 109 116 121 121 121 132 141 152 159 168 176 172 171 169 181 190 184 171 174 174 160 179 146 155 175 195 217 210 176 159 183 5 347 356 12 30 51 31 26 9 26 39
220 74 80 92 106 113 117 99 91 135 129 131 144 160 167 170 175 169 169 174 179 184 187 177 175 177 169 177 183 171 179 189 204 223 221 198 186 186 181 306 310 349 34 75 53 334 22 45 88
77 69 51 61 86 110 104 63 182 160 144 150 163 173 179 182 180 186 188 185 183 182 179 176 178 171 175 184 187 175 189 199 213 229 225 205 197 189 188 217 263 291 104 76 69 55 55 53 54
53 62 54 285 132 142 124 237 211 155 158 171 177 183 189 197 197 200 192 187 182 176 173 183 180 167 177 178 175 166 181 187 211 222 215 199 195 192 184 190 240 150 114 104 107 84 56 42 35
39 81 231 265 217 157 165 228 195 163 169 185 188 193 196 205 212 210 198 188 182 181 176 179 180 169 175 170 157 152 147 175 202 185 186 182 184 183 177 176 207 131 106 80 132 93 103 67 356
242 236 237 235 235 162 198 240 202 179 181 193 198 203 205 213 220 210 200 189 182 179 174 175 174 168 158 138 117 99 86 57 76 153 196 182 178 175 166 167 146 122 109 82 71 96 81 100 356
185 199 235 257 231 162 215 245 225 187 190 198 203 210 215 221 220 202 195 181 174 176 174 178 174 170 149 137 144 139 157 165 154 210 212 188 177 172 164 169 153 126 121 125 121 126 88 55 72
182 212 247 310 78 141 196 284 247 191 199 202 204 211 215 215 208 201 195 184 185 188 186 183 185 177 171 165 157 151 147 154 170 277 7 192 185 187 191 180 179 153 131 103 112 122 114 40 62
226 200 203 188 57 57 71 340 299 239 213 211 212 211 212 210 207 201 196 196 191 194 194 195 191 184 179 164 128 106 80 58 51 32 304 292 215 194 185 185 178 160 161 184 193 162 163 179 29
248 234 174 144 102 4 64 300 300 278 252 232 228 218 217 214 205 198 196 197 199 201 192 191 187 187 183 167 161 164 171 186 207 203 226 274 241 198 191 186 184 174 175 195 226 189 179 166 188
187 93 99 101 112 63 27 111 296 328 272 255 240 229 223 212 202 200 199 199 199 193 186 183 179 187 184 178 176 175 181 191 185 172 197 258 302 273 219 196 194 184 190 201 205 177 160 169 183
129 74 59 51 69 44 287 162 289 270 246 264 252 234 219 205 197 196 192 185 189 186 182 178 179 190 184 182 184 184 187 186 183 192 205 231 256 274 264 213 210 197 193 205 205 184 166 177 174
88 89 42 15 21 261 279 187 255 263 248 239 248 241 214 192 185 183 185 187 190 188 187 185 186 195 188 185 192 195 194 190 197 201 206 215 229 240 245 221 214 206 201 204 189 166 177 185 173
149 134 153 182 203 271 335 235 259 282 283 260 239 223 185 185 187 187 189 190 192 191 188 188 191 195 189 190 199 200 197 199 208 209 208 216 224 231 228 205 207 210 200 205 178 179 199 185 199
130 141 152 131 131 83 290 290 306 331 344 351 6 88 180 197 199 195 189 184 183 186 187 186 185 191 195 196 194 196 196 199 207 214 216 222 227 226 215 200 195 200 197 194 171 184 205 195 216
125 137 102 114 139 213 297 287 269 295 299 306 301 259 240 213 199 197 191 187 186 186 180 174 178 187 190 190 199 209 204 205 199 209 221 221 222 214 196 201 198 202 201 190 184 193 198 192 227
105 96 103 110 142 153 220 271 239 236 250 253 260 255 235 217 205 198 188 176 167 162 165 172 179 184 190 194 198 198 199 196 194 208 219 218 212 198 198 203 199 201 200 194 189 207 200 207 237
149 154 147 148 190 164 167 258 299 245 252 249 273 284 258 227 211 186 170 155 156 160 164 175 181 190 201 197 189 196 199 188 194 213 217 208 202 199 200 198 202 213 203 190 188 205 208 214 234
Height
1495 1495 1496 1498 1500 1506 1506 1499 1492 1492 1492 1492 1492 1492 1494 1497 1500 1506 1502 1500 1500 1501 1502 1502 1503 1504 1505 1506 1507 1508 1509 1511 1512 1513 1515 1516 1517 1519 1520 1521 1522 1523 1524 1526 1527 1528 1528 1529 1530
1495 1495 1498 1498 1504 1514 1509 1497 1494 1493 1493 1493 1494 1494 1496 1498 1499 1500 1501 1501 1502 1503 1504 1504 1505 1506 1507 1508 1509 1510 1512 1513 1514 1515 1516 1518 1519 1520 1522 1523 1524 1525 1526 1527 1528 1529 1529 1530 1530
1496 1496 1499 1499 1506 1512 1506 1496 1494 1494 1494 1494 1495 1497 1498 1500 1501 1502 1503 1503 1504 1505 1506 1507 1508 1509 1510 1511 1512 1513 1514 1515 1516 1517 1518 1520 1521 1522 1523 1524 1525 1526 1527 1528 1529 1530 1530 1530 1531
1496 1498 1499 1503 1506 1502 1498 1495 1494 1495 1495 1496 1497 1499 1501 1503 1503 1504 1505 1506 1507 1507 1508 1509 1511 1511 1513 1513 1514 1515 1516 1517 1518 1519 1520 1521 1522 1523 1524 1525 1526 1527 1528 1529 1530 1530 1531 1531 1531
1497 1498 1502 1508 1505 1498 1495 1495 1495 1496 1497 1498 1498 1501 1503 1505 1505 1506 1507 1508 1509 1510 1511 1512 1513 1514 1515 1516 1517 1518 1519 1519 1520 1521 1522 1523 1524 1525 1526 1527 1528 1529 1530 1530 1531 1531 1532 1531 1531
1498 1498 1509 1513 1506 1498 1497 1497 1497 1498 1499 1500 1501 1503 1506 1507 1508 1509 1510 1511 1512 1513 1513 1514 1515 1516 1517 1518 1519 1520 1521 1521 1522 1523 1524 1525 1526 1527 1528 1529 1530 1530 1531 1532 1532 1533 1533 1532 1531
1500 1502 1509 1509 1507 1502 1499 1498 1499 1499 1501 1502 1503 1504 1507 1508 1510 1511 1512 1513 1514 1515 1516 1517 1518 1519 1520 1521 1521 1522 1523 1524 1525 1525 1526 1527 1528 1530 1530 1531 1532 1532 1533 1533 1533 1534 1534 1533 1532
1499 1502 1507 1508 1507 1504 1499 1499 1500 1501 1502 1504 1504 1505 1508 1509 1511 1512 1514 1515 1516 1517 1518 1519 1520 1521 1522 1523 1523 1524 1525 1525 1526 1527 1528 1530 1530 1531 1532 1533 1533 1534 1534 1534 1535 1535 1535 1535 1534
1499 1507 1512 1507 1505 1502 1499 1500 1502 1503 1503 1504 1505 1506 1508 1510 1512 1513 1515 1517 1518 1519 1520 1521 1522 1523 1524 1524 1525 1526 1527 1527 1528 1529 1530 1531 1532 1533 1533 1534 1535 1535 1535 1535 1536 1536 1536 1536 1536
1500 1509 1505 1499 1498 1498 1499 1501 1502 1504 1505 1506 1506 1508 1509 1511 1513 1514 1516 1517 1519 1520 1521 1522 1524 1525 1525 1526 1527 1527 1528 1529 1530 1531 1532 1533 1534 1534 1535 1535 1536 1536 1536 1536 1537 1537 1537 1537 1537
1500 1502 1498 1496 1497 1498 1499 1501 1502 1504 1506 1506 1506 1508 1510 1512 1514 1516 1517 1519 1520 1522 1523 1524 1525 1526 1527 1528 1528 1529 1530 1531 1531 1532 1533 1534 1535 1535 1536 1536 1536 1537 1537 1537 1537 1538 1538 1538 1538
1500 1498 1497 1497 1497 1499 1500 1502 1504 1504 1505 1506 1508 1509 1511 1513 1515 1516 1518 1520 1521 1522 1524 1525 1526 1527 1528 1529 1530 1531 1531 1532 1533 1534 1535 1536 1536 1536 1537 1537 1537 1537 1537 1538 1538 1538 1539 1539 1539
1499 1498 1497 1498 1499 1500 1501 1503 1505 1506 1506 1508 1510 1511 1513 1514 1516 1518 1519 1521 1522 1523 1525 1526 1527 1528 1529 1530 1531 1532 1532 1533 1534 1535 1536 1536 1537 1537 1537 1538 1538 1538 1538 1539 1539 1539 1539 1539 1539
1498 1498 1498 1499 1499 1501 1502 1505 1506 1507 1508 1509 1511 1513 1514 1516 1517 1519 1520 1521 1522 1524 1525 1527 1528 1529 1530 1531 1532 1533 1534 1535 1535 1536 1536 1537 1537 1538 1538 1538 1538 1539 1539 1539 1539 1540 1540 1540 1540
1499 1500 1501 1501 1501 1503 1505 1508 1507 1507 1509 1510 1512 1514 1515 1517 1518 1519 1520 1522 1523 1524 1526 1527 1528 1529 1530 1531 1532 1533 1534 1535 1536 1536 1537 1537 1538 1538 1538 1538 1539 1539 1539 1540 1540 1540 1540 1540 1540
1500 1506 1511 1505 1503 1503 1509 1515 1507 1507 1509 1511 1512 1514 1516 1517 1518 1519 1521 1522 1524 1525 1526 1528 1528 1529 1530 1532 1533 1534 1535 1536 1536 1537 1537 1538 1538 1538 1539 1539 1539 1539 1539 1540 1540 1540 1540 1540 1540
1510 1516 1515 1509 1503 1504 1507 1511 1506 1507 1509 1510 1512 1514 1515 1517 1518 1519 1521 1522 1524 1525 1526 1528 1529 1530 1531 1532 1533 1534 1535 1536 1537 1537 1537 1538 1538 1539 1539 1539 1539 1540 1540 1540 1540 1540 1540 1540 1539
1515 1515 1514 1512 1504 1505 1508 1508 1505 1506 1508 1509 1511 1513 1514 1515 1517 1519 1520 1522 1524 1525 1526 1528 1529 1530 1531 1532 1533 1534 1535 1536 1537 1537 1538 1538 1538 1539 1539 1539 1539 1540 1540 1540 1540 1540 1539 1539 1539
1506 1510 1513 1508 1502 1505 1508 1508 1505 1505 1507 1509 1510 1512 1512 1513 1516 1518 1520 1521 1523 1525 1526 1527 1528 1530 1531 1532 1533 1534 1535 1536 1536 1537 1537 1538 1538 1538 1539 1539 1539 1539 1539 1539 1539 1539 1539 1539 1539
1505 1510 1511 1506 1502 1505 1509 1509 1504 1504 1506 1506 1508 1509 1510 1512 1514 1516 1518 1520 1521 1523 1525 1526 1528 1529 1530 1532 1533 1534 1535 1535 1536 1537 1537 1538 1538 1538 1538 1538 1538 1538 1539 1539 1539 1539 1539 1539 1538
1505 1508 1507 1508 1505 1506 1510 1514 1508 1504 1504 1505 1506 1507 1508 1510 1511 1513 1516 1518 1520 1522 1524 1525 1527 1528 1530 1531 1532 1533 1534 1535 1535 1536 1536 1537 1537 1537 1537 1537 1538 1538 1538 1538 1538 1538 1538 1538 1538
1507 1498 1501 1504 1513 1522 1517 1531 1513 1507 1505 1503 1503 1504 1505 1506 1508 1511 1513 1515 1518 1520 1522 1524 1526 1527 1529 1530 1531 1532 1533 1533 1534 1535 1536 1536 1536 1536 1536 1536 1537 1537 1537 1537 1537 1537 1537 1537 1537
1499 1496 1501 1506 1514 1523 1522 1529 1521 1508 1507 1503 1500 1500 1501 1503 1505 1508 1510 1513 1516 1519 1521 1523 1524 1526 1527 1529 1529 1530 1531 1532 1533 1534 1534 1535 1535 1535 1536 1536 1536 1536 1536 1536 1536 1537 1537 1537 1536
1494 1500 1507 1515 1522 1536 1528 1531 1527 1514 1506 1500 1497 1497 1498 1500 1502 1505 1509 1512 1514 1517 1519 1520 1522 1523 1525 1527 1528 1529 1530 1531 1531 1532 1533 1533 1534 1534 1534 1535 1534 1535 1535 1535 1535 1535 1536 1536 1536
1498 1514 1533 1536 1544 1541 1527 1529 1523 1503 1499 1497 1496 1495 1495 1498 1500 1503 1506 1509 1511 1514 1516 1518 1520 1522 1523 1525 1526 1528 1529 1529 1530 1530 1531 1531 1532 1533 1533 1533 1533 1533 1534 1534 1534 1534 1534 1534 1534
1501 1510 1533 1544 1547 1540 1529 1530 1513 1498 1496 1495 1494 1494 1495 1496 1498 1500 1503 1506 1509 1512 1514 1516 1518 1520 1522 1523 1524 1526 1527 1528 1528 1529 1530 1530 1530 1531 1531 1532 1532 1532 1532 1532 1532 1532 1533 1533 1533
1502 1511 1512 1529 1536 1541 1534 1522 1507 1496 1495 1494 1494 1493 1494 1496 1497 1499 1501 1504 1507 1509 1512 1514 1516 1518 1520 1521 1522 1523 1524 1525 1525 1527 1527 1528 1528 1529 1529 1530 1530 1530 1530 1530 1530 1530 1531 1531 1531
1494 1504 1518 1530 1543 1545 1534 1527 1522 1504 1499 1496 1495 1494 1494 1495 1497 1498 1500 1502 1505 1507 1510 1513 1515 1516 1518 1519 1520 1521 1522 1523 1523 1524 1524 1525 1525 1526 1527 1527 1527 1527 1527 1527 1528 1528 1528 1528 1528
1500 1507 1517 1528 1530 1542 1543 1531 1504 1502 1498 1496 1494 1493 1493 1494 1495 1497 1499 1501 1504 1506 1508 1510 1512 1514 1515 1516 1517 1518 1519 1520 1520 1520 1521 1522 1523 1523 1524 1524 1524 1524 1524 1525 1525 1525 1526 1526 1526
1492 1500 1511 1523 1530 1534 1537 1528 1497 1497 1495 1495 1494 1493 1493 1494 1495 1496 1498 1500 1502 1504 1506 1508 1510 1511 1513 1514 1514 1515 1516 1516 1517 1518 1518 1519 1520 1521 1521 1521 1522 1522 1522 1522 1522 1523 1523 1523 1523